Terug naar catalogus

STARLINK-36675

ActiefCommunicatieSSO
NORAD 67663·PAYLOAD·🇺🇸 United States

Gelanceerd Feb 2, 2026 vanaf Vandenberg Space Force Base

Loading…

Volgende Passages (komende 24 uur)

TLE

VersSource: CelesTrak SupGP

Epoch: Sep 14, 2026, 21:30 UTC

1 67663C 26022R   26257.89631944  .00017673  00000+0  54870-3 0  2573
2 67663  97.2845 289.5933 0001140  98.5241 195.2913 15.33424490    15

Volg STARLINK-36675 in realtime met AllMySat

Download on the App Store